Tracking 25193 objects as of 18-Jan-2022
HD Live streaming from Space Station
objects crossing your sky now

STARLINK-2113

Track STARLINK-2113 now!
10-day predictions
STARLINK-2113 is classified as:


NORAD ID: 47392
Int'l Code: 2021-005AV
Perigee: 552.9 km
Apogee: 555.9 km
Inclination: 53.1 °
Period: 95.6 minutes
Semi major axis: 6925 km
RCS: Unknown
Launch date: January 20, 2021
Source: United States (US)
Launch site: AIR FORCE EASTERN TEST RANGE (AFETR)
aabbcc
Your satellite tracking list
Your tracking list is empty




NASA's NSSDC Master Catalog

Two Line Element Set (TLE):
1 47392U 21005AV  22017.41334174 -.00010926  00000-0 -71600-3 0  9999
2 47392  53.0555 340.4816 0002179  70.3347 289.7877 15.06384907 55527
Source of the keplerian elements: AFSPC